Location: Riverton
(43.0250°N, 108.3790°W)
Time: 20:31:26
(UTC-06:00)

Amateur Radio Satellites - All Passes

Search period start: 06 July 2015 20:01
Search period end: 07 July 2015 20:01
Location: Riverton, 43.0250°N, 108.3790°W

Satellite Date Start Highest point End Downlink Frequencies (MHz)
Time Altitude Azimuth
HO-68 06 Jul 20:04:17 20:10:49 42° 64° (ENE) 20:17:28 435.675
GONETS M04 06 Jul 20:10:38 20:19:11 58° 76° (ENE) 20:27:43
CUTE 1.7 + AOD 2 06 Jul 20:15:49 20:19:17 26° 69° (ENE) 20:22:50 437.475
GOMX 1 06 Jul 20:17:26 20:22:22 55° 73° (ENE) 20:27:00 467.674
CANX-2 06 Jul 20:19:20 20:23:01 31° 70° (ENE) 20:26:47 2200.000
CUTE-I 06 Jul 20:32:50 20:33:30 10° 275° (W) 20:33:47 437.470
Cosmos 2499 06 Jul 20:33:28 20:38:27 18° 61° (ENE) 20:44:02 435.465 / 435.565
DOVE 4 06 Jul 20:49:16 20:54:03 71° 75° (ENE) 20:58:34 437.250
CUBESAT XI-V 06 Jul 20:53:33 20:56:46 18° 296° (WNW) 20:59:51 437.345
BRITE-PL 06 Jul 20:54:57 21:00:07 43° 262° (W) 21:04:56 437.365/2234.400
UWE-3 06 Jul 20:58:40 21:01:02 15° 65° (ENE) 21:03:32 435.000/436.395/437.385
SEEDS 06 Jul 20:59:14 21:03:22 62° 74° (ENE) 21:07:32 437.485
M-CUBED/EXP-1 PRIME 06 Jul 20:59:54 21:01:57 13° 95° (E) 21:04:17 437.505
DELFI C3 06 Jul 21:03:40 21:05:55 15° 65° (ENE) 21:08:19 145.870
AAUSAT CUBESAT 2 06 Jul 21:03:59 21:07:56 47° 73° (ENE) 21:11:58 437.432
STRAND 1 06 Jul 21:11:02 21:15:49 39° 291° (WNW) 21:20:32 437.568
CINEMA 3 06 Jul 21:16:23 21:20:47 61° 75° (ENE) 21:25:01 145.822/145.860
COMPASS 1 06 Jul 21:32:13 21:36:21 70° 259° (WSW) 21:40:32 437.405
PRISM 06 Jul 21:37:04 21:39:54 17° 295° (WNW) 21:42:35 437.425
HUMSAT D 06 Jul 21:38:10 21:40:05 13° 64° (ENE) 21:42:11 437.325/437.525
ZACube-1 06 Jul 21:38:52 21:42:31 30° 70° (ENE) 21:46:12 437.345
Oscar 11 06 Jul 21:41:11 21:45:23 56° 74° (ENE) 21:49:37 145.826/435.025
UKube-1 06 Jul 21:41:26 21:43:18 13° 62° (ENE) 21:45:21 .
CUBEBUG 2 06 Jul 21:47:28 21:51:40 63° 75° (ENE) 21:55:49 437.445
CUTE 1.7 + AOD 2 06 Jul 21:51:29 21:55:09 28° 265° (W) 21:58:47 437.475
HO-68 06 Jul 21:51:55 21:58:36 41° 263° (W) 22:05:14 435.675
CANX-2 06 Jul 21:55:35 21:59:00 23° 267° (W) 22:02:21 2200.000
AUBIESAT-1 06 Jul 21:56:03 22:00:12 44° 104° (ESE) 22:04:35 437.475
GOMX 1 06 Jul 21:57:21 22:00:47 18° 269° (W) 22:03:55 467.674
GONETS M04 06 Jul 22:08:11 22:15:38 32° 275° (W) 22:22:51
AISAT 06 Jul 22:11:55 22:14:44 17° 64° (ENE) 22:17:41 437.250
FUNcube-1 06 Jul 22:13:15 22:17:25 72° 76° (ENE) 22:21:34 145.935
CUBEBUG 1 06 Jul 22:22:48 22:24:19 12° 62° (ENE) 22:26:02 437.445
Cosmos 2499 06 Jul 22:24:55 22:32:52 86° 82° (E) 22:41:25 435.465 / 435.565
50 SAT 06 Jul 22:26:50 22:29:44 21° 68° (ENE) 22:32:43 437.505
DOVE 4 06 Jul 22:30:14 22:32:18 12° 272° (W) 22:34:03 437.250
M-CUBED/EXP-1 PRIME 06 Jul 22:32:51 22:37:06 66° 290° (WNW) 22:41:37 437.505
UWE-3 06 Jul 22:33:07 22:37:14 50° 261° (W) 22:41:18 435.000/436.395/437.385
DELFI C3 06 Jul 22:36:46 22:40:39 47° 261° (W) 22:44:34 145.870
SEEDS 06 Jul 22:38:07 22:39:39 11° 273° (W) 22:40:58 437.485
AAUSAT CUBESAT 2 06 Jul 22:41:24 22:43:52 15° 270° (W) 22:46:12 437.432
ESTCUBE 1 06 Jul 22:52:26 22:56:15 28° 68° (ENE) 23:00:09 437.505/2401.250
CINEMA 3 06 Jul 22:56:26 22:58:26 12° 271° (W) 23:00:11 145.822/145.860
DX 1 06 Jul 22:57:43 23:02:06 85° 76° (ENE) 23:06:31 434.975-435.025
VELOX 1 06 Jul 22:58:37 23:02:53 47° 72° (ENE) 23:07:12 145.980
UNISAT 6 06 Jul 23:06:16 23:09:53 25° 94° (E) 23:13:39 437.425
HUMSAT D 06 Jul 23:11:24 23:15:25 56° 260° (W) 23:19:27 437.325/437.525
SPROUT 06 Jul 23:14:34 23:16:00 12° 62° (ENE) 23:17:39 437.525
UKube-1 06 Jul 23:14:36 23:18:56 69° 258° (WSW) 23:23:17 .
ZACube-1 06 Jul 23:15:34 23:18:57 23° 267° (W) 23:22:13 437.345
Oscar 11 06 Jul 23:19:46 23:22:00 13° 271° (W) 23:24:02 145.826/435.025
QB50P1 06 Jul 23:21:30 23:23:41 14° 90° (E) 23:26:02 145.935-145.965
CUBEBUG 2 06 Jul 23:27:21 23:28:51 11° 272° (W) 23:30:07 437.445
AUBIESAT-1 06 Jul 23:31:28 23:34:42 21° 298° (WNW) 23:37:59 437.475
NANOSAT C BR1 06 Jul 23:34:00 23:36:59 19° 92° (E) 23:40:04 145.865
DUCHIFAT 1 06 Jul 23:39:48 23:43:00 21° 93° (E) 23:46:18 145.980
TISAT 1 06 Jul 23:44:17 23:46:48 16° 65° (ENE) 23:49:29 437.305
BUGSAT 1 06 Jul 23:45:22 23:47:46 16° 91° (E) 23:50:18 437.445
AISAT 06 Jul 23:46:35 23:50:57 52° 260° (W) 23:55:19 437.250
PCSat 06 Jul 23:46:51 23:51:30 28° 46° (NE) 23:56:12 145.827
POLYITAN 1 06 Jul 23:48:05 23:51:43 28° 95° (E) 23:55:23 437.675
ANTELSAT 06 Jul 23:50:19 23:54:44 74° 103° (ESE) 23:59:14 437.575/2403.000
CUBEBUG 1 06 Jul 23:55:40 00:00:07 78° 258° (WSW) 00:04:34 437.445
50 SAT 07 Jul 00:00:52 00:04:13 28° 264° (W) 00:07:33 437.505
TIGRISAT 07 Jul 00:01:27 00:05:52 88° 284° (WNW) 00:10:21 435.000
QB50P2 07 Jul 00:16:59 00:21:10 60° 101° (E) 00:25:20 145.880/145.840
POPSAT HIP 1 07 Jul 00:17:00 00:21:09 58° 100° (E) 00:25:17 437.405
Cosmos 2499 07 Jul 00:19:50 00:25:15 19° 278° (W) 00:30:29 435.465 / 435.565
SO-50 07 Jul 00:21:26 00:25:35 26° 42° (NE) 00:29:46 436.795
ESTCUBE 1 07 Jul 00:29:00 00:33:03 31° 265° (W) 00:37:05 437.505/2401.250
VELOX 1 07 Jul 00:36:42 00:39:44 17° 269° (W) 00:42:38 145.980
UNISAT 6 07 Jul 00:42:48 00:46:44 32° 290° (WNW) 00:50:40 437.425
SPROUT 07 Jul 00:47:15 00:51:33 74° 258° (WSW) 00:55:52 437.525
QB50P1 07 Jul 00:55:49 00:59:55 51° 287° (WNW) 01:03:59 145.935-145.965
NANOSAT C BR1 07 Jul 01:09:04 01:12:58 37° 289° (WNW) 01:16:50 145.865
DUCHIFAT 1 07 Jul 01:15:07 01:18:54 33° 290° (WNW) 01:22:39 145.980
TISAT 1 07 Jul 01:18:06 01:22:14 50° 261° (W) 01:26:21 437.305
BUGSAT 1 07 Jul 01:19:39 01:23:30 42° 288° (WNW) 01:27:18 437.445
POLYITAN 1 07 Jul 01:24:01 01:27:34 26° 292° (WNW) 01:31:02 437.675
BEESAT 07 Jul 01:24:09 01:28:21 33° 68° (ENE) 01:32:40 436.000
ANTELSAT 07 Jul 01:29:07 01:31:01 12° 297° (WNW) 01:32:45 437.575/2403.000
PCSat 07 Jul 01:29:57 01:35:11 49° 246° (WSW) 01:40:22 145.827
SWISSCUBE 07 Jul 01:39:43 01:44:20 50° 72° (ENE) 01:49:00 437.505
AIST 1 07 Jul 01:41:47 01:43:06 11° 64° (ENE) 01:44:39
RS-15 07 Jul 01:43:01 01:52:50 43° 110° (ESE) 02:03:07 29.354- 29.394
ITUPSAT 1 07 Jul 01:46:23 01:51:01 52° 72° (ENE) 01:55:44 437.325
POPSAT HIP 1 07 Jul 01:54:21 01:56:36 14° 296° (WNW) 01:58:42 437.405
QB50P2 07 Jul 01:54:27 01:56:37 14° 297° (WNW) 01:58:37 145.880/145.840
KKS-1 07 Jul 01:56:01 01:57:39 12° 62° (ENE) 01:59:31 437.445
SO-50 07 Jul 02:01:36 02:06:27 52° 241° (WSW) 02:11:09 436.795
Cosmos 2491 07 Jul 02:06:03 02:14:24 47° 73° (ENE) 02:22:45 435.465 / 435.565
Oscar 19 07 Jul 02:09:27 02:14:05 34° 96° (E) 02:18:45 437.125/150
ITAMSAT 1 07 Jul 02:28:41 02:31:19 14° 88° (E) 02:34:12 435.822/435.867
Gurwin Techsat 1B 07 Jul 02:38:10 02:41:52 19° 90° (E) 02:45:44 435.225
STARS 07 Jul 02:39:17 02:42:27 20° 66° (ENE) 02:45:44 437.465
YUBILEINY 07 Jul 02:41:00 02:48:12 32° 84° (E) 02:55:38 435.215
BEESAT 07 Jul 03:02:06 03:06:14 28° 265° (W) 03:10:20 436.000
AIST 1 07 Jul 03:17:02 03:21:23 68° 264° (W) 03:25:39
SWISSCUBE 07 Jul 03:19:08 03:22:31 18° 269° (W) 03:25:47 437.505
ITUPSAT 1 07 Jul 03:26:00 03:29:17 18° 270° (W) 03:32:26 437.325
KKS-1 07 Jul 03:29:17 03:33:45 77° 257° (WSW) 03:38:13 437.445
Oscar 19 07 Jul 03:48:53 03:53:23 31° 293° (WNW) 03:57:49 437.125/150
RS-15 07 Jul 03:54:07 04:04:55 60° 313° (NW) 04:16:07 29.354- 29.394
Cosmos 2491 07 Jul 04:03:13 04:11:10 39° 273° (W) 04:18:56 435.465 / 435.565
ITAMSAT 1 07 Jul 04:06:15 04:11:29 73° 287° (WNW) 04:16:40 435.822/435.867
MOZHAYETS 4 07 Jul 04:07:56 04:11:51 29° 68° (ENE) 04:15:51
JAS-2 07 Jul 04:09:40 04:16:06 44° 97° (E) 04:23:14 435.910
STARS 07 Jul 04:14:30 04:18:40 40° 262° (W) 04:22:49 437.465
Gurwin Techsat 1B 07 Jul 04:17:04 04:22:17 56° 289° (WNW) 04:27:28 435.225
HORYU 2 07 Jul 04:21:35 04:25:13 24° 94° (E) 04:28:55 437.375
AO-7 07 Jul 04:35:39 04:43:15 38° 97° (E) 04:50:55 29.400- 29.500
YUBILEINY 07 Jul 04:36:05 04:44:38 58° 284° (WNW) 04:53:11 435.215
MOZHAYETS 4 07 Jul 05:45:00 05:49:02 29° 265° (W) 05:53:03
ITAMSAT 1 07 Jul 05:48:52 05:50:10 11° 303° (WNW) 05:51:10 435.822/435.867
JAS-2 07 Jul 05:54:59 06:01:06 38° 292° (WNW) 06:07:44 435.910
Cosmos 2504 07 Jul 05:57:10 06:03:55 60° 93° (E) 06:10:46 435.465 / 435.565
HORYU 2 07 Jul 05:57:53 06:01:56 33° 291° (WNW) 06:05:55 437.375
RS-15 07 Jul 06:11:17 06:20:24 27° 344° (NNW) 06:29:42 29.354- 29.394
CUBESAT XI-V 07 Jul 06:19:06 06:23:42 56° 73° (ENE) 06:28:22 437.345
VERMONT LUNAR 07 Jul 06:25:50 06:27:42 15° 153° (SSE) 06:29:36 437.305
AO-7 07 Jul 06:28:15 06:36:18 52° 296° (WNW) 06:44:15 29.400- 29.500
BEESAT 3 07 Jul 06:32:51 06:36:19 28° 115° (ESE) 06:39:51 437.485
YUBILEINY 07 Jul 06:40:51 06:43:59 12° 310° (NW) 06:46:29 435.215
STRAND 1 07 Jul 06:48:46 06:53:35 43° 70° (ENE) 06:58:28 437.568
BEESAT 2 07 Jul 06:49:10 06:52:49 32° 116° (ESE) 06:56:33 435.950
PRISM 07 Jul 06:51:32 06:55:23 37° 70° (ENE) 06:59:18 437.425
DANDE 07 Jul 07:00:48 07:04:13 15° 91° (E) 07:07:32 436.750
CUTE-I 07 Jul 07:03:30 07:08:27 37° 96° (E) 07:13:24 437.470
CUSAT 1 07 Jul 07:16:46 07:21:33 26° 96° (E) 07:25:33 437.405
GONETS M04 07 Jul 07:23:40 07:25:39 11° 74° (ENE) 07:28:23
PHONESAT 2.4 07 Jul 07:28:28 07:29:04 10° 148° (SSE) 07:29:47 2401.200-2431.200
Cubesat XI-IV 07 Jul 07:38:24 07:43:48 77° 102° (ESE) 07:49:10 437.490
O/OREOS (USA 219) 07 Jul 07:40:02 07:44:31 89° 323° (NW) 07:49:00 437.305
M-CUBED/EXP-1 PRIME 07 Jul 07:49:37 07:51:35 15° 60° (ENE) 07:53:42 437.505
Cosmos 2504 07 Jul 07:51:12 07:56:44 24° 294° (WNW) 08:02:07 435.465 / 435.565
ISS 07 Jul 07:51:38 07:54:50 65° 144° (SE) 07:58:04 145.825
CUBESAT XI-V 07 Jul 07:58:35 08:01:34 16° 271° (W) 08:04:22 437.345
VERMONT LUNAR 07 Jul 08:01:12 08:04:09 42° 169° (SSE) 08:07:08 437.305
BEESAT 3 07 Jul 08:10:31 08:14:12 31° 313° (NW) 08:17:53 437.485
GOMX 1 07 Jul 08:20:31 08:21:57 12° 88° (E) 08:23:35 467.674
AO-7 07 Jul 08:23:43 08:27:20 13° 317° (NW) 08:30:34 29.400- 29.500
BEESAT 2 07 Jul 08:27:19 08:30:55 28° 314° (NW) 08:34:30 435.950
AIST 2 07 Jul 08:27:29 08:31:44 86° 124° (SE) 08:36:03 435.215
PRISM 07 Jul 08:27:55 08:30:59 19° 268° (W) 08:33:59 437.425
RS-15 07 Jul 08:28:19 08:37:42 28° 19° (NNE) 08:47:34 29.354- 29.394
STRAND 1 07 Jul 08:28:47 08:32:59 24° 267° (W) 08:37:07 437.568
DANDE 07 Jul 08:40:23 08:47:18 79° 280° (W) 08:52:28 436.750
CUTE-I 07 Jul 08:43:46 08:48:27 31° 294° (WNW) 08:53:02 437.470
AUBIESAT-1 07 Jul 08:45:20 08:48:38 60° 69° (ENE) 08:52:09 437.475
DOVE 4 07 Jul 08:48:40 08:51:00 15° 90° (E) 08:53:31 437.250
CUSAT 1 07 Jul 08:58:34 09:04:07 38° 283° (WNW) 09:08:22 437.405
BRITE-PL 07 Jul 08:59:05 09:03:17 55° 100° (E) 09:07:21 437.365/2234.400
PHONESAT 2.4 07 Jul 09:03:22 09:06:30 34° 163° (SSE) 09:09:40 2401.200-2431.200
CINEMA 3 07 Jul 09:11:56 09:13:34 12° 89° (E) 09:15:25 145.822/145.860
GONETS M04 07 Jul 09:12:20 09:20:56 64° 93° (E) 09:29:34
COMPASS 1 07 Jul 09:15:34 09:18:22 18° 91° (E) 09:21:20 437.405
HO-68 07 Jul 09:18:01 09:24:34 38° 97° (E) 09:31:12 435.675
Cubesat XI-IV 07 Jul 09:20:02 09:23:20 16° 300° (WNW) 09:26:26 437.490
O/OREOS (USA 219) 07 Jul 09:23:00 09:24:42 12° 313° (NW) 09:26:14 437.305
M-CUBED/EXP-1 PRIME 07 Jul 09:23:06 09:26:10 34° 258° (WSW) 09:29:22 437.505
ISS 07 Jul 09:28:39 09:31:27 26° 342° (NNW) 09:34:15 145.825
CUTE 1.7 + AOD 2 07 Jul 09:35:00 09:39:07 44° 98° (E) 09:43:15 437.475
VERMONT LUNAR 07 Jul 09:37:49 09:40:52 50° 185° (S) 09:43:54 437.305
CANX-2 07 Jul 09:38:47 09:43:01 54° 99° (E) 09:47:15 2200.000
CUBEBUG 2 07 Jul 09:39:20 09:40:47 12° 88° (E) 09:42:30 437.445
GOMX 1 07 Jul 09:56:30 10:00:37 57° 286° (WNW) 10:04:40 467.674
FUNcube-1 07 Jul 10:02:12 10:03:59 13° 89° (E) 10:05:59 145.935
UNISAT 6 07 Jul 10:06:37 10:10:03 24° 68° (ENE) 10:13:33 437.425
AIST 2 07 Jul 10:08:23 10:10:56 15° 323° (NW) 10:13:24 435.215
DELFI C3 07 Jul 10:15:22 10:18:26 21° 93° (E) 10:21:34 145.870
QB50P1 07 Jul 10:15:50 10:17:49 13° 64° (ENE) 10:19:58 145.935-145.965
SEEDS 07 Jul 10:18:06 10:22:22 75° 284° (WNW) 10:26:37 437.485
AAUSAT CUBESAT 2 07 Jul 10:21:06 10:25:20 80° 102° (ESE) 10:29:34 437.432
UWE-3 07 Jul 10:21:56 10:25:34 27° 95° (E) 10:29:19 435.000/436.395/437.385
DOVE 4 07 Jul 10:25:08 10:29:07 45° 288° (WNW) 10:33:06 437.250
NANOSAT C BR1 07 Jul 10:27:53 10:30:38 18° 66° (ENE) 10:33:31 145.865
DANDE 07 Jul 10:28:56 10:30:52 11° 294° (WNW) 10:32:19 436.750
DUCHIFAT 1 07 Jul 10:33:25 10:36:25 19° 66° (ENE) 10:39:29 145.980
BUGSAT 1 07 Jul 10:36:52 10:39:05 14° 64° (ENE) 10:41:26 437.445
BRITE-PL 07 Jul 10:39:10 10:41:23 14° 297° (WNW) 10:43:25 437.365/2234.400
PHONESAT 2.4 07 Jul 10:40:53 10:44:16 56° 179° (S) 10:47:40 2401.200-2431.200
RS-15 07 Jul 10:41:33 10:53:05 64° 48° (NE) 11:05:09 29.354- 29.394
POLYITAN 1 07 Jul 10:42:12 10:45:37 25° 68° (ENE) 10:49:08 437.675
DX 1 07 Jul 10:46:51 10:48:54 13° 89° (E) 10:51:10 434.975-435.025
CINEMA 3 07 Jul 10:47:05 10:51:12 58° 286° (WNW) 10:55:24 145.822/145.860
ANTELSAT 07 Jul 10:50:16 10:54:31 72° 74° (ENE) 10:58:47 437.575/2403.000
COMPASS 1 07 Jul 10:50:16 10:54:16 41° 288° (WNW) 10:58:15 437.405
HUMSAT D 07 Jul 10:54:51 10:57:59 21° 93° (E) 11:01:15 437.325/437.525
TIGRISAT 07 Jul 11:01:08 11:05:24 89° 255° (WSW) 11:09:41 435.000
ZACube-1 07 Jul 11:01:49 11:06:01 59° 100° (E) 11:10:17 437.345
UKube-1 07 Jul 11:02:06 11:05:02 18° 92° (E) 11:08:04 .
Cosmos 2499 07 Jul 11:03:08 11:10:04 67° 94° (E) 11:17:14 435.465 / 435.565
Oscar 11 07 Jul 11:03:25 11:07:48 80° 284° (WNW) 11:12:08 145.826/435.025
HO-68 07 Jul 11:05:41 11:12:24 44° 295° (WNW) 11:19:02 435.675
ISS 07 Jul 11:06:19 11:08:36 18° 2° (N) 11:10:54 145.825
POPSAT HIP 1 07 Jul 11:10:29 11:14:34 48° 72° (ENE) 11:18:39 437.405
QB50P2 07 Jul 11:10:36 11:14:42 50° 73° (ENE) 11:18:49 145.880/145.840
GONETS M04 07 Jul 11:10:58 11:18:31 30° 295° (WNW) 11:25:50
CUTE 1.7 + AOD 2 07 Jul 11:11:46 11:14:44 18° 294° (WNW) 11:17:35 437.475
CUBEBUG 2 07 Jul 11:13:45 11:17:57 63° 286° (WNW) 11:22:14 437.445
VERMONT LUNAR 07 Jul 11:14:51 11:17:26 23° 201° (SSW) 11:20:00 437.305
CANX-2 07 Jul 11:16:00 11:18:33 15° 295° (WNW) 11:20:57 2200.000
50 SAT 07 Jul 11:35:11 11:38:33 28° 95° (E) 11:42:00 437.505
FUNcube-1 07 Jul 11:36:33 11:40:44 59° 286° (WNW) 11:44:58 145.935
AISAT 07 Jul 11:36:37 11:40:20 27° 95° (E) 11:44:06 437.250
UNISAT 6 07 Jul 11:42:56 11:46:45 30° 264° (W) 11:50:30 437.425
CUBEBUG 1 07 Jul 11:44:40 11:47:34 18° 91° (E) 11:50:35 437.445
QB50P1 07 Jul 11:49:02 11:53:14 61° 260° (W) 11:57:27 145.935-145.965
DELFI C3 07 Jul 11:49:55 11:53:36 32° 289° (WNW) 11:57:14 145.870
UWE-3 07 Jul 11:58:28 12:02:04 27° 291° (WNW) 12:05:41 435.000/436.395/437.385
AAUSAT CUBESAT 2 07 Jul 11:59:28 12:00:22 10° 298° (WNW) 12:01:04 437.432
NANOSAT C BR1 07 Jul 12:02:07 12:06:10 44° 261° (W) 12:10:14 145.865
DUCHIFAT 1 07 Jul 12:08:00 12:11:58 39° 262° (W) 12:15:56 145.980
BUGSAT 1 07 Jul 12:10:00 12:14:09 55° 259° (W) 12:18:16 437.445
POLYITAN 1 07 Jul 12:17:42 12:21:27 29° 265° (W) 12:25:09 437.675
PHONESAT 2.4 07 Jul 12:18:50 12:22:03 36° 196° (SSW) 12:25:15 2401.200-2431.200
ESTCUBE 1 07 Jul 12:20:07 12:24:33 51° 99° (E) 12:28:58 437.505/2401.250
DX 1 07 Jul 12:21:18 12:25:36 57° 287° (WNW) 12:29:49 434.975-435.025
VELOX 1 07 Jul 12:24:20 12:28:47 85° 102° (ESE) 12:33:10 145.980
HUMSAT D 07 Jul 12:30:02 12:33:50 34° 289° (WNW) 12:37:38 437.325/437.525
ANTELSAT 07 Jul 12:31:34 12:31:54 10° 273° (W) 12:31:58 437.575/2403.000
SPROUT 07 Jul 12:33:58 12:36:50 18° 91° (E) 12:39:48 437.525
UKube-1 07 Jul 12:37:17 12:41:24 42° 289° (WNW) 12:45:27 .
ZACube-1 07 Jul 12:39:41 12:41:59 14° 296° (WNW) 12:44:08 437.345
ISS 07 Jul 12:42:43 12:45:41 32° 22° (NNE) 12:48:40 145.825
POPSAT HIP 1 07 Jul 12:48:12 12:50:45 15° 270° (W) 12:53:09 437.405
QB50P2 07 Jul 12:48:29 12:50:56 15° 270° (W) 12:53:13 145.880/145.840
YUBILEINY 07 Jul 12:49:52 12:54:46 16° 56° (NE) 13:00:11 435.215
RS-15 07 Jul 12:54:28 13:05:17 43° 250° (WSW) 13:16:14 29.354- 29.394
Cosmos 2499 07 Jul 12:58:37 13:04:02 22° 297° (WNW) 13:09:21 435.465 / 435.565
TISAT 1 07 Jul 13:02:05 13:05:22 23° 94° (E) 13:08:43 437.305
50 SAT 07 Jul 13:09:57 13:13:04 23° 292° (WNW) 13:16:09 437.505
AISAT 07 Jul 13:13:04 13:16:55 29° 291° (WNW) 13:20:41 437.250
CUBEBUG 1 07 Jul 13:20:02 13:24:11 43° 289° (WNW) 13:28:16 437.445
Oscar 19 07 Jul 13:27:05 13:32:04 54° 72° (ENE) 13:37:05 437.125/150
SWISSCUBE 07 Jul 13:41:18 13:42:55 12° 87° (E) 13:44:48 437.505
ITAMSAT 1 07 Jul 13:46:59 13:51:09 26° 65° (ENE) 13:55:27 435.822/435.867
ITUPSAT 1 07 Jul 13:48:00 13:49:56 13° 87° (E) 13:52:07 437.325
AO-7 07 Jul 13:48:29 13:52:13 14° 44° (NE) 13:56:22 29.400- 29.500
ESTCUBE 1 07 Jul 13:57:59 14:01:04 18° 296° (WNW) 14:04:00 437.505/2401.250
PHONESAT 2.4 07 Jul 13:58:10 13:59:31 12° 211° (SSW) 14:00:46 2401.200-2431.200
Gurwin Techsat 1B 07 Jul 13:59:52 14:04:34 34° 68° (ENE) 14:09:22 435.225
VELOX 1 07 Jul 14:03:30 14:04:43 11° 299° (WNW) 14:05:43 145.980
SPROUT 07 Jul 14:09:05 14:13:08 41° 289° (WNW) 14:17:09 437.525
ISS 07 Jul 14:19:04 14:22:09 41° 220° (SW) 14:25:11 145.825
JAS-2 07 Jul 14:26:07 14:29:19 17° 59° (ENE) 14:32:51 435.910
PCSat 07 Jul 14:30:58 14:34:31 19° 107° (ESE) 14:38:16 145.827
TISAT 1 07 Jul 14:37:27 14:41:12 31° 290° (WNW) 14:44:52 437.305
YUBILEINY 07 Jul 14:44:42 14:53:30 76° 80° (E) 15:02:19 435.215
BEESAT 3 07 Jul 14:50:14 14:53:38 25° 45° (NE) 14:57:04 437.485
BEESAT 07 Jul 15:00:27 15:05:15 69° 102° (ESE) 15:10:01 436.000
BEESAT 2 07 Jul 15:07:12 15:10:49 29° 46° (NE) 15:14:24 435.950
Cosmos 2491 07 Jul 15:08:02 15:16:27 53° 90° (E) 15:24:56 435.465 / 435.565
Oscar 19 07 Jul 15:08:10 15:11:50 19° 270° (W) 15:15:20 437.125/150
AIST 2 07 Jul 15:11:32 15:13:17 12° 34° (NE) 15:15:10 435.215
SWISSCUBE 07 Jul 15:16:36 15:21:27 77° 284° (WNW) 15:26:14 437.505
KKS-1 07 Jul 15:20:20 15:23:26 19° 92° (E) 15:26:40 437.445
HORYU 2 07 Jul 15:20:54 15:24:30 26° 67° (ENE) 15:28:13 437.375
ITUPSAT 1 07 Jul 15:23:37 15:28:27 73° 285° (WNW) 15:33:15 437.325
ITAMSAT 1 07 Jul 15:25:28 15:30:27 44° 262° (W) 15:35:27 435.822/435.867
AO-7 07 Jul 15:35:19 15:43:22 56° 65° (ENE) 15:51:31 29.400- 29.500
Gurwin Techsat 1B 07 Jul 15:39:48 15:44:34 32° 265° (W) 15:49:18 435.225
Cosmos 2504 07 Jul 15:41:50 15:47:08 21° 64° (ENE) 15:52:59 435.465 / 435.565
AIST 1 07 Jul 15:46:56 15:51:18 67° 96° (E) 15:55:42
STARS 07 Jul 16:03:10 16:07:06 32° 96° (E) 16:11:03 437.465
JAS-2 07 Jul 16:08:41 16:13:51 68° 258° (WSW) 16:19:22 435.910
O/OREOS (USA 219) 07 Jul 16:10:22 16:13:57 23° 55° (NE) 16:17:38 437.305
PCSat 07 Jul 16:12:05 16:17:28 65° 304° (NW) 16:22:53 145.827
SO-50 07 Jul 16:16:32 16:20:59 43° 117° (ESE) 16:25:37 436.795
BEESAT 3 07 Jul 16:27:57 16:31:40 34° 243° (WSW) 16:35:18 437.485
BEESAT 07 Jul 16:39:47 16:42:36 15° 298° (WNW) 16:45:13 436.000
YUBILEINY 07 Jul 16:42:53 16:49:32 24° 279° (W) 16:55:50 435.215
BEESAT 2 07 Jul 16:45:15 16:48:51 29° 245° (WSW) 16:52:21 435.950
AIST 2 07 Jul 16:48:26 16:52:40 74° 55° (NE) 16:56:48 435.215
CUTE-I 07 Jul 16:51:59 16:52:16 10° 56° (NE) 16:52:50 437.470
KKS-1 07 Jul 16:56:06 17:00:18 42° 289° (WNW) 17:04:27 437.445
HORYU 2 07 Jul 16:57:07 17:01:03 31° 264° (W) 17:04:59 437.375
Cosmos 2491 07 Jul 17:05:40 17:13:42 36° 292° (WNW) 17:21:35 435.465 / 435.565
Cubesat XI-IV 07 Jul 17:23:25 17:27:08 20° 62° (ENE) 17:31:02 437.490
AIST 1 07 Jul 17:27:43 17:29:33 12° 295° (WNW) 17:31:10
AO-7 07 Jul 17:29:04 17:36:34 35° 265° (W) 17:43:58 29.400- 29.500
Cosmos 2504 07 Jul 17:32:40 17:40:16 82° 265° (W) 17:48:26 435.465 / 435.565
MOZHAYETS 4 07 Jul 17:38:21 17:42:59 60° 100° (E) 17:47:35
STARS 07 Jul 17:39:50 17:43:26 25° 293° (WNW) 17:46:56 437.465
O/OREOS (USA 219) 07 Jul 17:49:18 17:53:33 39° 253° (WSW) 17:57:46 437.305
SO-50 07 Jul 17:57:29 18:01:42 29° 317° (NW) 18:05:58 436.795
PCSat 07 Jul 17:59:08 18:02:02 14° 325° (NW) 18:04:47 145.827
CUBESAT XI-V 07 Jul 18:16:41 18:18:48 13° 87° (E) 18:21:07 437.345
CUTE-I 07 Jul 18:26:08 18:31:26 67° 73° (ENE) 18:36:49 437.470
AIST 2 07 Jul 18:29:20 18:30:41 11° 251° (WSW) 18:31:48 435.215
BRITE-PL 07 Jul 18:36:22 18:37:12 10° 61° (ENE) 18:38:19 437.365/2234.400
STRAND 1 07 Jul 19:00:08 19:02:19 13° 87° (E) 19:04:48 437.568
Cubesat XI-IV 07 Jul 19:01:30 19:06:49 61° 259° (WSW) 19:12:10 437.490
MOZHAYETS 4 07 Jul 19:16:53 19:19:46 16° 296° (WNW) 19:22:29
DANDE 07 Jul 19:21:41 19:24:24 76° 79° (ENE) 19:26:59 436.750
GONETS M04 07 Jul 19:21:44 19:29:18 33° 67° (ENE) 19:37:00
Cosmos 2504 07 Jul 19:27:22 19:31:35 15° 280° (W) 19:35:24 435.465 / 435.565
GOMX 1 07 Jul 19:28:37 19:31:59 19° 67° (ENE) 19:35:23 467.674
CUSAT 1 07 Jul 19:34:57 19:37:17 29° 264° (W) 19:39:41 437.405
HO-68 07 Jul 19:47:57 19:54:04 33° 62° (ENE) 20:00:19 435.675
CUBESAT XI-V 07 Jul 19:52:07 19:56:48 66° 286° (WNW) 20:01:23 437.345
